Flag Weather past 2 weeks in Londrina, Paraná, Brazil

Now
72 °F

Passing clouds.


Feels Like: 71 °F
Forecast: 70 / 88 °F
Wind: 8 mph from Southeast

Location: Londrina Aeroporto

Current Time: Nov 28, 2014 at 9:13:41 AM

Latest Report: Nov 28, 2014 at 8:00 AM


Visibility: N/A

Pressure: 30.01 "Hg

Humidity: 83%

Dew point: 66 °F

Location of LondrinaLocation

Historic Weather in Londrina — Graph

°F

Londrina temperature yesterday

Maximum temperature yesterday: 84 °F (at 3:00 PM)
Minimum temperature yesterday: 72 °F (at 4:00 AM)
Average temperature yesterday: 77 °F

Past Weeks' High & Low Weather Summary

 TemperatureHumidityPressure
High93 °F (Nov 19, 3:00 PM)100% (Nov 20, 1:00 AM)30.12 "Hg (Nov 20, 1:00 AM)
Low36 °F (Nov 20, 6:00 PM)12% (Nov 17, 7:00 PM)29.74 "Hg (Nov 13, 4:00 PM)
Average75 °F69%29.94 "Hg
* Reported Nov 13 8:00 AM — Nov 28 8:00 AM, Londrina, Weather by CustomWeather, © 2014

Note: Actual official high and low records may vary slightly from our data, if they occured in-between our weather recording intervals... More about our weather records

Advertising

Londrina weather history for previous 24 hours

 ConditionsComfort  
Time TempWeatherWind HumidityBarometerVisibility
8:00 AM
Nov 28
72 °FPassing clouds.8 mph83%30.01 "HgN/A
7:00 AM70 °FScattered clouds.6 mph88%29.98 "HgN/A
6:00 AM72 °FClear.6 mph83%29.95 "Hg10 mi
5:00 AM72 °FClear.8 mph83%29.92 "Hg10 mi
4:00 AM73 °FPassing clouds.9 mph83%29.92 "HgN/A
3:00 AM73 °FPassing clouds.9 mph94%29.95 "HgN/A
2:00 AM73 °FPassing clouds.5 mph94%29.95 "HgN/A
1:00 AM75 °FClear.3 mph83%29.95 "Hg10 mi
12:00 AM77 °FClear.No wind83%29.95 "Hg10 mi
11:00 PM
Nov 27
77 °FPassing clouds.6 mph79%29.95 "HgN/A
10:00 PM77 °FPassing clouds.5 mph89%29.95 "HgN/A
9:00 PM79 °FClear.5 mph79%29.89 "Hg10 mi
8:00 PM81 °FPassing clouds.2 mph74%29.86 "HgN/A
7:00 PM82 °FPassing clouds.5 mph66%29.86 "HgN/A
6:00 PM82 °FPassing clouds.6 mph70%29.86 "HgN/A
5:00 PM82 °FPassing clouds.5 mph70%29.89 "HgN/A
4:00 PM82 °FScattered clouds.9 mph66%29.89 "HgN/A
3:00 PM84 °FPassing clouds.6 mph62%29.92 "HgN/A
2:00 PM82 °FPassing clouds.8 mph66%29.95 "HgN/A
1:00 PM75 °FPassing clouds.6 mph94%29.95 "HgN/A
12:00 PM75 °FPartly sunny.8 mph89%29.98 "HgN/A
11:00 AM79 °FPartly sunny.8 mph79%29.95 "HgN/A
10:00 AM77 °FPartly sunny.8 mph83%29.95 "HgN/A
9:00 AM75 °FPartly sunny.7 mph89%29.95 "HgN/A
Weather by CustomWeather, © 2014

See weather overviewHow to use our weather pages